TVF63AL LFRS-LFKF

Flight info

Callsign TVF63AL
Flight time 1h 33m
Altitude 25000
Route LUGEN UM184 TUPAR/N0453F290 DCT DIDRU/N0452F350 DCT ADATU DCT LERGA DCT TOZOT DCT OTROT DCT RETNO DCT KOLON DCT OMARD M623 VAREK
Aircraft B738/M-SDE2E3FGHIRWXY/LB1

Departure

Time 2026-04-12 06:54
Airport Nantes Atlantique Airport (LFRS)

Arrival

Time 2026-04-12 08:28
Airport Figari Sud-Corse Airport (LFKF)
Time Latitude Longitude Altitude Speed Heading
2026-04-12 06:35 47.15512 -1.60160 89 ft 0 kts 207°
2026-04-12 06:44 47.15530 -1.60147 90 ft 4 kts 207°
2026-04-12 06:44 47.15551 -1.60132 91 ft 4 kts 181°
2026-04-12 06:44 47.15567 -1.60148 90 ft 4 kts 119°
2026-04-12 06:44 47.15577 -1.60178 90 ft 3 kts 117°
2026-04-12 06:45 47.15589 -1.60212 91 ft 4 kts 116°
2026-04-12 06:45 47.15601 -1.60248 91 ft 4 kts 117°
2026-04-12 06:45 47.15614 -1.60282 93 ft 4 kts 126°
2026-04-12 06:45 47.15630 -1.60304 92 ft 1 kts 138°
2026-04-12 06:49 47.15629 -1.60304 91 ft 0 kts 138°
2026-04-12 06:49 47.15596 -1.60276 92 ft 10 kts 171°
2026-04-12 06:49 47.15528 -1.60329 90 ft 12 kts 239°
2026-04-12 06:49 47.15539 -1.60441 91 ft 11 kts 300°
2026-04-12 06:50 47.15584 -1.60536 90 ft 12 kts 306°
2026-04-12 06:50 47.15658 -1.60544 91 ft 11 kts 22°
2026-04-12 06:50 47.15727 -1.60492 91 ft 11 kts 27°
2026-04-12 06:50 47.15795 -1.60441 88 ft 11 kts 27°
2026-04-12 06:51 47.15860 -1.60391 90 ft 10 kts 27°
2026-04-12 06:51 47.15924 -1.60343 89 ft 10 kts 27°
2026-04-12 06:51 47.15985 -1.60295 88 ft 10 kts 27°
2026-04-12 06:51 47.16045 -1.60249 89 ft 10 kts 27°
2026-04-12 06:52 47.16105 -1.60205 90 ft 10 kts 27°
2026-04-12 06:52 47.16175 -1.60152 91 ft 13 kts 27°
2026-04-12 06:52 47.16257 -1.60089 90 ft 10 kts 27°
2026-04-12 06:52 47.16259 -1.60087 89 ft 0 kts 27°
2026-04-12 06:53 47.16262 -1.60085 89 ft 3 kts 27°
2026-04-12 06:53 47.16323 -1.60052 89 ft 16 kts
2026-04-12 06:53 47.16443 -1.60130 85 ft 21 kts 296°
2026-04-12 06:53 47.16343 -1.60291 87 ft 38 kts 206°
2026-04-12 06:54 47.15877 -1.60645 83 ft 110 kts 207°
2026-04-12 06:54 47.15026 -1.61283 122 ft 163 kts 206°
2026-04-12 06:54 47.14008 -1.62052 903 ft 161 kts 206°
2026-04-12 06:54 47.13001 -1.62750 1824 ft 161 kts 209°
2026-04-12 06:55 47.11959 -1.63506 2496 ft 173 kts 202°
2026-04-12 06:55 47.10767 -1.63382 3313 ft 183 kts 155°
2026-04-12 06:55 47.09898 -1.61920 3851 ft 209 kts 113°
2026-04-12 06:55 47.09438 -1.59794 4212 ft 229 kts 108°
2026-04-12 06:56 47.08961 -1.57516 4747 ft 236 kts 109°
2026-04-12 06:56 47.08445 -1.55223 5389 ft 240 kts 111°
2026-04-12 06:56 47.07868 -1.52826 5780 ft 262 kts 111°
2026-04-12 06:56 47.07230 -1.50213 6297 ft 277 kts 113°
2026-04-12 06:57 47.06197 -1.47828 6965 ft 282 kts 137°
2026-04-12 06:57 47.04771 -1.45888 7940 ft 276 kts 142°
2026-04-12 06:57 47.03331 -1.44078 8813 ft 278 kts 143°
2026-04-12 06:57 47.01837 -1.42228 9578 ft 284 kts 143°
2026-04-12 06:58 47.00353 -1.40338 10468 ft 284 kts 142°
2026-04-12 06:58 46.98815 -1.38372 10777 ft 305 kts 142°
2026-04-12 06:58 46.97724 -1.36991 10914 ft 321 kts 142°
2026-04-12 06:58 46.95360 -1.33980 11195 ft 352 kts 142°
2026-04-12 06:59 46.93488 -1.31566 11662 ft 363 kts 142°
2026-04-12 06:59 46.91587 -1.29099 12401 ft 366 kts 142°
2026-04-12 06:59 46.89686 -1.26625 13230 ft 367 kts 142°
2026-04-12 07:00 46.85837 -1.21627 14639 ft 374 kts 143°
2026-04-12 07:00 46.83883 -1.19099 15262 ft 378 kts 143°
2026-04-12 07:00 46.81905 -1.16539 15898 ft 381 kts 143°
2026-04-12 07:00 46.79914 -1.13962 16555 ft 384 kts 144°
2026-04-12 07:01 46.77905 -1.11361 17190 ft 388 kts 144°
2026-04-12 07:01 46.75877 -1.08739 17800 ft 391 kts 144°
2026-04-12 07:01 46.73832 -1.06096 18434 ft 395 kts 144°
2026-04-12 07:01 46.71815 -1.03492 18947 ft 397 kts 145°
2026-04-12 07:02 46.69696 -1.00758 19535 ft 399 kts 145°
2026-04-12 07:02 46.67611 -0.98071 20117 ft 401 kts 146°
2026-04-12 07:02 46.65516 -0.95372 20652 ft 403 kts 146°
2026-04-12 07:02 46.63408 -0.92661 21189 ft 406 kts 146°
2026-04-12 07:03 46.61309 -0.89965 21683 ft 408 kts 146°
2026-04-12 07:03 46.59174 -0.87226 22181 ft 411 kts 146°
2026-04-12 07:03 46.57030 -0.84476 22698 ft 413 kts 146°
2026-04-12 07:03 46.55601 -0.82636 23049 ft 414 kts 147°
2026-04-12 07:04 46.53442 -0.79854 23550 ft 416 kts 147°
2026-04-12 07:04 46.51245 -0.77022 23992 ft 418 kts 147°
2026-04-12 07:04 46.49090 -0.74245 24435 ft 418 kts 147°
2026-04-12 07:04 46.46917 -0.71452 24912 ft 417 kts 147°
2026-04-12 07:05 46.44862 -0.68782 25348 ft 420 kts 144°
2026-04-12 07:05 46.42889 -0.65574 25771 ft 430 kts 136°
2026-04-12 07:05 46.41230 -0.61909 26165 ft 443 kts 128°
2026-04-12 07:05 46.39812 -0.57928 26565 ft 445 kts 126°
2026-04-12 07:06 46.38427 -0.53902 26931 ft 447 kts 126°
2026-04-12 07:06 46.37043 -0.49866 27284 ft 448 kts 126°
2026-04-12 07:06 46.35646 -0.45827 27628 ft 449 kts 127°
2026-04-12 07:06 46.34237 -0.41798 27976 ft 450 kts 127°
2026-04-12 07:07 46.32810 -0.37752 28321 ft 451 kts 127°
2026-04-12 07:07 46.31397 -0.33769 28651 ft 452 kts 127°
2026-04-12 07:07 46.29957 -0.29725 28984 ft 452 kts 127°
2026-04-12 07:07 46.28516 -0.25681 29437 ft 450 kts 128°
2026-04-12 07:08 46.27088 -0.21673 29988 ft 446 kts 128°
2026-04-12 07:08 46.25667 -0.17690 30453 ft 443 kts 128°
2026-04-12 07:08 46.24241 -0.13707 30763 ft 443 kts 128°
2026-04-12 07:08 46.22817 -0.09745 31013 ft 444 kts 128°
2026-04-12 07:09 46.21413 -0.05834 31312 ft 444 kts 128°
2026-04-12 07:09 46.19991 -0.01876 31664 ft 443 kts 128°
2026-04-12 07:09 46.18584 0.02069 32000 ft 444 kts 127°
2026-04-12 07:09 46.17410 0.06248 32269 ft 456 kts 119°
2026-04-12 07:10 46.16449 0.10607 32560 ft 457 kts 118°
2026-04-12 07:10 46.15508 0.15053 32863 ft 457 kts 117°
2026-04-12 07:10 46.14588 0.19439 33154 ft 457 kts 118°
2026-04-12 07:10 46.13665 0.23811 33443 ft 456 kts 118°
2026-04-12 07:11 46.12731 0.28180 33725 ft 455 kts 118°
2026-04-12 07:11 46.11788 0.32537 34003 ft 455 kts 118°
2026-04-12 07:11 46.10839 0.36887 34245 ft 455 kts 118°
2026-04-12 07:11 46.09873 0.41289 34434 ft 456 kts 118°
2026-04-12 07:12 46.08913 0.45639 34609 ft 457 kts 118°
2026-04-12 07:12 46.07947 0.50008 34808 ft 457 kts 118°
2026-04-12 07:12 46.06980 0.54377 35006 ft 458 kts 118°
2026-04-12 07:12 46.06011 0.58744 35099 ft 459 kts 117°
2026-04-12 07:13 46.04079 0.67438 35086 ft 459 kts 117°
2026-04-12 07:13 46.02131 0.76175 35091 ft 458 kts 118°
2026-04-12 07:14 46.00176 0.84897 35093 ft 458 kts 118°
2026-04-12 07:14 45.98215 0.93613 35100 ft 458 kts 118°
2026-04-12 07:15 45.96259 1.02269 35098 ft 458 kts 118°
2026-04-12 07:15 45.94284 1.10972 35103 ft 458 kts 118°
2026-04-12 07:16 45.92303 1.19672 35104 ft 458 kts 118°
2026-04-12 07:16 45.90332 1.28293 35099 ft 457 kts 118°
2026-04-12 07:17 45.88349 1.36930 35100 ft 455 kts 118°
2026-04-12 07:17 45.86364 1.45542 35090 ft 454 kts 118°
2026-04-12 07:18 45.84378 1.54125 35076 ft 452 kts 118°
2026-04-12 07:18 45.82397 1.62652 35079 ft 450 kts 118°
2026-04-12 07:19 45.80431 1.71081 35073 ft 448 kts 118°
2026-04-12 07:19 45.78454 1.79521 35071 ft 446 kts 118°
2026-04-12 07:20 45.76478 1.87925 35077 ft 445 kts 118°
2026-04-12 07:20 45.74498 1.96313 35070 ft 444 kts 117°
2026-04-12 07:21 45.72512 2.04691 35069 ft 445 kts 117°
2026-04-12 07:21 45.70517 2.13078 35070 ft 446 kts 117°
2026-04-12 07:22 45.68508 2.21493 35074 ft 448 kts 117°
2026-04-12 07:22 45.66484 2.29941 35077 ft 450 kts 117°
2026-04-12 07:23 45.64445 2.38418 35072 ft 452 kts 117°
2026-04-12 07:23 45.62405 2.46873 35073 ft 453 kts 117°
2026-04-12 07:24 45.60341 2.55394 35075 ft 455 kts 117°
2026-04-12 07:24 45.58266 2.63925 35065 ft 455 kts 117°
2026-04-12 07:25 45.56184 2.72464 35069 ft 455 kts 117°
2026-04-12 07:25 45.54115 2.80910 35078 ft 453 kts 117°
2026-04-12 07:26 45.51831 2.89224 35083 ft 448 kts 121°
2026-04-12 07:26 45.49350 2.97355 35076 ft 447 kts 122°
2026-04-12 07:27 45.46868 3.05480 35091 ft 446 kts 121°
2026-04-12 07:27 45.44410 3.13606 35080 ft 447 kts 121°
2026-04-12 07:28 45.41955 3.21743 35078 ft 448 kts 121°
2026-04-12 07:28 45.39507 3.29835 35077 ft 449 kts 121°
2026-04-12 07:29 45.37030 3.37995 35073 ft 450 kts 121°
2026-04-12 07:29 45.34543 3.46163 35076 ft 451 kts 121°
2026-04-12 07:30 45.32036 3.54365 35065 ft 453 kts 121°
2026-04-12 07:30 45.29517 3.62589 35062 ft 455 kts 121°
2026-04-12 07:31 45.26985 3.70829 35060 ft 456 kts 121°
2026-04-12 07:31 45.24694 3.79288 35059 ft 464 kts 114°
2026-04-12 07:32 45.22967 3.88137 35055 ft 466 kts 112°
2026-04-12 07:32 45.21225 3.97054 35058 ft 466 kts 112°
2026-04-12 07:33 45.19429 4.05868 35044 ft 466 kts 113°
2026-04-12 07:33 45.17605 4.14731 35062 ft 465 kts 113°
2026-04-12 07:34 45.15784 4.23531 35055 ft 465 kts 113°
2026-04-12 07:34 45.13962 4.32317 35052 ft 464 kts 113°
2026-04-12 07:35 45.12082 4.41035 35049 ft 459 kts 118°
2026-04-12 07:35 45.09005 4.48727 35045 ft 442 kts 136°
2026-04-12 07:36 45.04993 4.55246 35038 ft 439 kts 138°
2026-04-12 07:36 45.00948 4.61712 35048 ft 439 kts 138°
2026-04-12 07:37 44.96923 4.68206 35040 ft 440 kts 137°
2026-04-12 07:37 44.92927 4.74685 35047 ft 440 kts 137°
2026-04-12 07:38 44.88899 4.81212 35050 ft 442 kts 137°
2026-04-12 07:38 44.84851 4.87754 35054 ft 444 kts 137°
2026-04-12 07:39 44.80780 4.94320 35040 ft 446 kts 137°
2026-04-12 07:39 44.76699 5.00887 35028 ft 445 kts 137°
2026-04-12 07:40 44.72627 5.07424 35026 ft 444 kts 137°
2026-04-12 07:40 44.68547 5.13957 35001 ft 442 kts 137°
2026-04-12 07:41 44.64450 5.20502 34970 ft 439 kts 137°
2026-04-12 07:41 44.60422 5.26922 34979 ft 439 kts 136°
2026-04-12 07:42 44.56356 5.33386 34973 ft 439 kts 137°
2026-04-12 07:43 44.48265 5.46209 34969 ft 439 kts 137°
2026-04-12 07:43 44.44268 5.52523 34949 ft 440 kts 137°
2026-04-12 07:44 44.40149 5.59016 34947 ft 440 kts 136°
2026-04-12 07:44 44.36265 5.65659 34943 ft 445 kts 130°
2026-04-12 07:45 44.32827 5.72791 34957 ft 445 kts 128°
2026-04-12 07:45 44.29409 5.80001 34943 ft 445 kts 129°
2026-04-12 07:46 44.26537 5.85966 34931 ft 445 kts 129°
2026-04-12 07:46 44.22472 5.94307 34930 ft 445 kts 129°
2026-04-12 07:47 44.18976 6.01440 34938 ft 446 kts 129°
2026-04-12 07:47 44.15473 6.08570 34932 ft 446 kts 129°
2026-04-12 07:48 44.12560 6.14490 34929 ft 446 kts 129°
2026-04-12 07:48 44.09030 6.21645 34927 ft 446 kts 129°
2026-04-12 07:49 44.05471 6.28844 34917 ft 445 kts 129°
2026-04-12 07:49 44.01956 6.35936 34929 ft 445 kts 129°
2026-04-12 07:50 43.98439 6.43013 34935 ft 446 kts 129°
2026-04-12 07:50 43.94908 6.50102 34927 ft 447 kts 129°
2026-04-12 07:51 43.91367 6.57194 34930 ft 447 kts 129°
2026-04-12 07:51 43.87827 6.64270 34936 ft 446 kts 129°
2026-04-12 07:52 43.84260 6.71380 34925 ft 447 kts 129°
2026-04-12 07:52 43.80724 6.78412 34930 ft 447 kts 129°
2026-04-12 07:53 43.77148 6.85509 34929 ft 448 kts 129°
2026-04-12 07:53 43.73637 6.92448 34934 ft 447 kts 130°
2026-04-12 07:54 43.69261 6.98571 34941 ft 437 kts 146°
2026-04-12 07:54 43.64422 7.03544 34931 ft 436 kts 147°
2026-04-12 07:55 43.59517 7.08566 34934 ft 437 kts 147°
2026-04-12 07:55 43.54644 7.13608 34939 ft 437 kts 146°
2026-04-12 07:56 43.49800 7.18639 34933 ft 436 kts 146°
2026-04-12 07:56 43.44958 7.23663 34926 ft 435 kts 146°
2026-04-12 07:57 43.40121 7.28669 34923 ft 434 kts 146°
2026-04-12 07:57 43.35314 7.33631 34910 ft 436 kts 146°
2026-04-12 07:58 43.30461 7.38632 34910 ft 435 kts 146°
2026-04-12 07:58 43.25617 7.43615 34907 ft 435 kts 146°
2026-04-12 07:59 43.20777 7.48583 34907 ft 435 kts 146°
2026-04-12 07:59 43.15936 7.53542 34903 ft 434 kts 146°
2026-04-12 08:00 43.11083 7.58364 34896 ft 432 kts 152°
2026-04-12 08:00 43.05639 7.61657 34907 ft 427 kts 162°
2026-04-12 08:01 43.00037 7.64366 34894 ft 427 kts 162°
2026-04-12 08:01 42.94442 7.67097 34891 ft 427 kts 162°
2026-04-12 08:02 42.91625 7.68484 34384 ft 434 kts 162°
2026-04-12 08:02 42.88788 7.69886 33773 ft 432 kts 162°
2026-04-12 08:02 42.86000 7.71267 33053 ft 433 kts 162°
2026-04-12 08:02 42.83173 7.72667 32346 ft 433 kts 162°
2026-04-12 08:03 42.80341 7.74068 31614 ft 433 kts 162°
2026-04-12 08:03 42.77504 7.75469 30893 ft 434 kts 162°
2026-04-12 08:03 42.74674 7.76867 30390 ft 430 kts 162°
2026-04-12 08:03 42.71868 7.78251 29847 ft 427 kts 162°
2026-04-12 08:04 42.69084 7.79622 29264 ft 423 kts 162°
2026-04-12 08:04 42.66344 7.80970 28940 ft 414 kts 162°
2026-04-12 08:04 42.61087 7.83556 28876 ft 394 kts 162°
2026-04-12 08:05 42.58558 7.84798 28859 ft 380 kts 162°
2026-04-12 08:05 42.56116 7.85996 28854 ft 366 kts 162°
2026-04-12 08:05 42.53768 7.87147 28859 ft 352 kts 162°
2026-04-12 08:05 42.51509 7.88252 28851 ft 339 kts 162°
2026-04-12 08:06 42.49338 7.89314 28855 ft 325 kts 162°
2026-04-12 08:06 42.47251 7.90334 28853 ft 312 kts 162°
2026-04-12 08:06 42.45247 7.91312 28851 ft 301 kts 163°
2026-04-12 08:06 42.43291 7.92265 28872 ft 299 kts 163°
2026-04-12 08:07 42.41325 7.93220 28901 ft 310 kts 163°
2026-04-12 08:07 42.39263 7.94222 28882 ft 320 kts 162°
2026-04-12 08:07 42.35046 7.96276 28861 ft 320 kts 163°
2026-04-12 08:08 42.30998 7.98660 28856 ft 319 kts 144°
2026-04-12 08:08 42.27854 8.02988 27987 ft 334 kts 136°
2026-04-12 08:09 42.26277 8.05361 27253 ft 337 kts 135°
2026-04-12 08:09 42.24703 8.07739 26485 ft 341 kts 135°
2026-04-12 08:09 42.23107 8.10138 25764 ft 345 kts 135°
2026-04-12 08:09 42.21514 8.12519 25056 ft 347 kts 135°
2026-04-12 08:10 42.19892 8.14930 24354 ft 349 kts 135°
2026-04-12 08:10 42.18230 8.17391 23677 ft 350 kts 135°
2026-04-12 08:10 42.16588 8.19817 22938 ft 350 kts 135°
2026-04-12 08:10 42.14920 8.22274 21998 ft 353 kts 135°
2026-04-12 08:11 42.13230 8.24757 20695 ft 367 kts 135°
2026-04-12 08:11 42.11475 8.27333 19524 ft 377 kts 134°
2026-04-12 08:11 42.09699 8.29940 18647 ft 377 kts 134°
2026-04-12 08:11 42.07962 8.32490 17907 ft 372 kts 134°
2026-04-12 08:12 42.06204 8.35069 17130 ft 367 kts 134°
2026-04-12 08:12 42.04489 8.37582 16371 ft 362 kts 134°
2026-04-12 08:12 42.02821 8.40022 15627 ft 358 kts 133°
2026-04-12 08:12 42.01143 8.42476 14902 ft 357 kts 133°
2026-04-12 08:13 41.99475 8.44911 14322 ft 350 kts 133°
2026-04-12 08:13 41.97838 8.47300 13635 ft 346 kts 133°
2026-04-12 08:13 41.96216 8.49664 12829 ft 343 kts 133°
2026-04-12 08:13 41.94608 8.52006 12109 ft 339 kts 133°
2026-04-12 08:14 41.93007 8.54336 11499 ft 340 kts 133°
2026-04-12 08:14 41.91406 8.56665 10967 ft 340 kts 133°
2026-04-12 08:14 41.89814 8.58980 10706 ft 331 kts 133°
2026-04-12 08:14 41.88275 8.61214 10549 ft 321 kts 133°
2026-04-12 08:15 41.86807 8.63345 10406 ft 310 kts 133°
2026-04-12 08:15 41.85366 8.65436 10267 ft 300 kts 133°
2026-04-12 08:15 41.83971 8.67458 10148 ft 291 kts 133°
2026-04-12 08:15 41.82619 8.69418 10028 ft 282 kts 133°
2026-04-12 08:16 41.81310 8.71312 9904 ft 273 kts 133°
2026-04-12 08:16 41.80021 8.73176 9600 ft 272 kts 133°
2026-04-12 08:16 41.78738 8.75030 9340 ft 271 kts 133°
2026-04-12 08:16 41.77376 8.76762 9034 ft 271 kts 146°
2026-04-12 08:17 41.75656 8.77762 8736 ft 270 kts 164°
2026-04-12 08:17 41.73820 8.78196 8445 ft 265 kts 170°
2026-04-12 08:17 41.72006 8.78478 8160 ft 260 kts 171°
2026-04-12 08:17 41.70236 8.78736 7894 ft 259 kts 171°
2026-04-12 08:18 41.68456 8.79005 7613 ft 258 kts 171°
2026-04-12 08:18 41.66674 8.79288 7346 ft 256 kts 171°
2026-04-12 08:18 41.64911 8.79575 7085 ft 255 kts 171°
2026-04-12 08:18 41.63154 8.79868 6823 ft 254 kts 170°
2026-04-12 08:19 41.61406 8.80162 6550 ft 255 kts 170°
2026-04-12 08:19 41.59656 8.80462 6288 ft 254 kts 170°
2026-04-12 08:19 41.57899 8.80760 6023 ft 253 kts 170°
2026-04-12 08:19 41.56156 8.81058 5753 ft 252 kts 170°
2026-04-12 08:20 41.54486 8.81342 5481 ft 252 kts 170°
2026-04-12 08:20 41.52685 8.81648 5223 ft 250 kts 170°
2026-04-12 08:20 41.51002 8.81936 5090 ft 242 kts 169°
2026-04-12 08:20 41.49433 8.82557 4963 ft 231 kts 149°
2026-04-12 08:21 41.48093 8.83653 4887 ft 222 kts 147°
2026-04-12 08:21 41.46801 8.84723 4783 ft 214 kts 147°
2026-04-12 08:21 41.45554 8.85751 4688 ft 206 kts 147°
2026-04-12 08:21 41.44353 8.86737 4516 ft 202 kts 146°
2026-04-12 08:22 41.43163 8.87714 4319 ft 200 kts 146°
2026-04-12 08:22 41.41990 8.88677 4146 ft 195 kts 146°
2026-04-12 08:22 41.40852 8.89607 3928 ft 188 kts 146°
2026-04-12 08:22 41.39790 8.90529 3708 ft 176 kts 135°
2026-04-12 08:23 41.39177 8.91822 3580 ft 158 kts 109°
2026-04-12 08:23 41.39061 8.93192 3357 ft 147 kts 90°
2026-04-12 08:23 41.39378 8.94524 2911 ft 153 kts 69°
2026-04-12 08:23 41.39851 8.95741 2595 ft 148 kts 69°
2026-04-12 08:24 41.40322 8.96974 2233 ft 145 kts 68°
2026-04-12 08:24 41.40758 8.98098 2059 ft 130 kts 68°
2026-04-12 08:24 41.41166 8.99148 1660 ft 133 kts 68°
2026-04-12 08:24 41.41586 9.00228 1249 ft 127 kts 67°
2026-04-12 08:25 41.41962 9.01147 1175 ft 104 kts 68°
2026-04-12 08:25 41.42281 9.02056 1247 ft 121 kts 63°
2026-04-12 08:25 41.43045 9.02783 1363 ft 141 kts 33°
2026-04-12 08:25 41.43898 9.03421 1308 ft 138 kts 38°
2026-04-12 08:26 41.44707 9.04090 1113 ft 134 kts 39°
2026-04-12 08:26 41.45494 9.04723 1098 ft 131 kts 37°
2026-04-12 08:26 41.46310 9.05329 975 ft 137 kts 33°
2026-04-12 08:26 41.47181 9.05900 869 ft 142 kts 30°
2026-04-12 08:27 41.48022 9.06591 631 ft 138 kts 46°
2026-04-12 08:27 41.48698 9.07464 384 ft 134 kts 49°
2026-04-12 08:27 41.49336 9.08383 139 ft 132 kts 51°
2026-04-12 08:27 41.49905 9.09230 72 ft 106 kts 47°
2026-04-12 08:28 41.50257 9.09743 63 ft 43 kts 47°
2026-04-12 08:28 41.50387 9.09931 73 ft 22 kts 47°
2026-04-12 08:28 41.50475 9.10094 82 ft 22 kts 75°
2026-04-12 08:28 41.50518 9.10156 82 ft 6 kts 350°
2026-04-12 08:29 41.50529 9.10144 83 ft 0 kts 295°
2026-04-12 08:29 41.50528 9.10140 83 ft 1 kts 254°
2026-04-12 08:29 41.50494 9.10084 81 ft 14 kts 227°
2026-04-12 08:29 41.50411 9.09966 67 ft 22 kts 227°
2026-04-12 08:30 41.50283 9.09781 68 ft 27 kts 227°
2026-04-12 08:30 41.50162 9.09739 70 ft 16 kts 144°
2026-04-12 08:30 41.50106 9.09800 63 ft 8 kts 147°
2026-04-12 08:30 41.50085 9.09809 68 ft 2 kts 172°
2026-04-12 08:31 41.50070 9.09807 69 ft 2 kts 193°
2026-04-12 08:31 41.50048 9.09792 64 ft 6 kts 204°
2026-04-12 08:31 41.50011 9.09808 65 ft 4 kts 139°
2026-04-12 08:31 41.50009 9.09811 65 ft 1 kts 138°
2026-04-12 08:32 41.50003 9.09817 68 ft 1 kts 137°
2026-04-12 08:32 41.49997 9.09824 69 ft 1 kts 137°
2026-04-12 08:32 41.49995 9.09827 65 ft 0 kts 137°